AlSat 1N (41789 NORAD) Tracking and Keplerian Element Data

This shows tracking and keplerian element data for the satellite.

Feedback or suggestion? Click here.




ElementValue
Catalog41789
NameAlSat 1N
Epoch Orbit21664
Epoch Day289.82116307
Epoch Year2020
RAAN344.9129
Inclination98.0075
Eccentricity0.0026961
Argument of Perigee284.8197
Mean Anonmoly75.0005
Mean Motion14.64348407
Decay Rate5.4E-07
L11 41789U 16059G 20289.82116307 .00000054 00000-0 19176-4 0 9996
L22 41789 98.0075 344.9129 0026961 284.8197 75.0005 14.64348407216642

Live tracking and technical data element details for AlSat 1N (NORAD 41789). AlSat 1N can be tracked NOW for your location showing map with azimuth and elevation plus other details from your city location.

Track the satellite on the map from your city or location and see movement details for azimuth, elevation, latitude, longitude, range, height, and movement on the map or in text.







IsCatalogInMostPopularTable: catalog: 41789, numindb: 398
Update: records affected: 1



GetName: 41789 AlSat 1N

Hit Count: updated at: Thu, 22 Oct 2020 03:43:12 GMT